Year,Month,Day,Hour,Minute,Value (Times are PST for temperature in C)
2017,07,20,00,00,19.80
2017,07,20,00,01,19.80
2017,07,20,00,02,19.80
2017,07,20,00,03,19.80
2017,07,20,00,04,19.80
2017,07,20,00,05,19.80
2017,07,20,00,06,19.80
2017,07,20,00,07,19.80
2017,07,20,00,08,19.80
2017,07,20,00,09,19.80
2017,07,20,00,10,19.80
2017,07,20,00,11,19.80
2017,07,20,00,12,19.80
2017,07,20,00,13,19.80
2017,07,20,00,14,19.80
2017,07,20,00,15,19.80
2017,07,20,00,16,19.80
2017,07,20,00,17,19.80
2017,07,20,00,18,19.80
2017,07,20,00,19,19.80
2017,07,20,00,20,19.80
2017,07,20,00,21,19.70
2017,07,20,00,22,19.80
2017,07,20,00,23,19.80
2017,07,20,00,24,19.70
2017,07,20,00,25,19.70
2017,07,20,00,26,19.70
2017,07,20,00,27,19.70
2017,07,20,00,28,19.70
2017,07,20,00,29,19.70
2017,07,20,00,30,19.70
2017,07,20,00,31,19.70
2017,07,20,00,32,19.70
2017,07,20,00,33,19.70
2017,07,20,00,34,19.70
2017,07,20,00,35,19.70
2017,07,20,00,36,19.70
2017,07,20,00,37,19.70
2017,07,20,00,38,19.70
2017,07,20,00,39,19.70
2017,07,20,00,40,19.70
2017,07,20,00,41,19.70
2017,07,20,00,42,19.70
2017,07,20,00,43,19.70
2017,07,20,00,44,19.70
2017,07,20,00,45,19.70
2017,07,20,00,46,19.70
2017,07,20,00,47,19.70
2017,07,20,00,48,19.70
2017,07,20,00,49,19.70
2017,07,20,00,50,19.70
2017,07,20,00,51,19.70
2017,07,20,00,52,19.70
2017,07,20,00,53,19.70
2017,07,20,00,54,19.70
2017,07,20,00,55,19.70
2017,07,20,00,56,19.70
2017,07,20,00,57,19.60
2017,07,20,00,58,19.60
2017,07,20,00,59,19.60
2017,07,20,01,00,19.60
2017,07,20,01,01,19.60
2017,07,20,01,02,19.60
2017,07,20,01,03,19.60
2017,07,20,01,04,19.60
2017,07,20,01,05,19.50
2017,07,20,01,06,19.50
2017,07,20,01,07,19.50
2017,07,20,01,08,19.60
2017,07,20,01,09,19.60
2017,07,20,01,10,19.60
2017,07,20,01,11,19.60
2017,07,20,01,12,19.60
2017,07,20,01,13,19.60
2017,07,20,01,14,19.60
2017,07,20,01,15,19.60
2017,07,20,01,16,19.60
2017,07,20,01,17,19.60
2017,07,20,01,18,19.60
2017,07,20,01,19,19.60
2017,07,20,01,20,19.50
2017,07,20,01,21,19.50
2017,07,20,01,22,19.40
2017,07,20,01,23,19.40
2017,07,20,01,24,19.30
2017,07,20,01,25,19.30
2017,07,20,01,26,19.30
2017,07,20,01,27,19.30
2017,07,20,01,28,19.20
2017,07,20,01,29,19.20
2017,07,20,01,30,19.20
2017,07,20,01,31,19.20
2017,07,20,01,32,19.10
2017,07,20,01,33,19.00
2017,07,20,01,34,19.00
2017,07,20,01,35,18.90
2017,07,20,01,36,18.90
2017,07,20,01,37,18.80
2017,07,20,01,38,18.80
2017,07,20,01,39,18.80
2017,07,20,01,40,18.70
2017,07,20,01,41,18.70
2017,07,20,01,42,18.60
2017,07,20,01,43,18.60
2017,07,20,01,44,18.60
2017,07,20,01,45,18.50
2017,07,20,01,46,18.50
2017,07,20,01,47,18.40
2017,07,20,01,48,18.40
2017,07,20,01,49,18.40
2017,07,20,01,50,18.40
2017,07,20,01,51,18.40
2017,07,20,01,52,18.40
2017,07,20,01,53,18.40
2017,07,20,01,54,18.40
2017,07,20,01,55,18.40
2017,07,20,01,56,18.40
2017,07,20,01,57,18.40
2017,07,20,01,58,18.40
2017,07,20,01,59,18.40
2017,07,20,02,00,18.40
2017,07,20,02,01,18.40
2017,07,20,02,02,18.50
2017,07,20,02,03,18.50
2017,07,20,02,04,18.50
2017,07,20,02,05,18.50
2017,07,20,02,06,18.50
2017,07,20,02,07,18.50
2017,07,20,02,08,18.50
2017,07,20,02,09,18.60
2017,07,20,02,10,18.60
2017,07,20,02,11,18.60
2017,07,20,02,12,18.60
2017,07,20,02,13,18.50
2017,07,20,02,14,18.50
2017,07,20,02,15,18.50
2017,07,20,02,16,18.40
2017,07,20,02,17,18.40
2017,07,20,02,18,18.40
2017,07,20,02,19,18.40
2017,07,20,02,20,18.40
2017,07,20,02,21,18.40
2017,07,20,02,22,18.40
2017,07,20,02,23,18.40
2017,07,20,02,24,18.40
2017,07,20,02,25,18.40
2017,07,20,02,26,18.40
2017,07,20,02,27,18.30
2017,07,20,02,28,18.40
2017,07,20,02,29,18.40
2017,07,20,02,30,18.40
2017,07,20,02,31,18.40
2017,07,20,02,32,18.40
2017,07,20,02,33,18.40
2017,07,20,02,34,18.40
2017,07,20,02,35,18.40
2017,07,20,02,36,18.40
2017,07,20,02,37,18.40
2017,07,20,02,38,18.40
2017,07,20,02,39,18.40
2017,07,20,02,40,18.40
2017,07,20,02,41,18.40
2017,07,20,02,42,18.40
2017,07,20,02,43,18.40
2017,07,20,02,44,18.40
2017,07,20,02,45,18.40
2017,07,20,02,46,18.40
2017,07,20,02,47,18.40
2017,07,20,02,48,18.50
2017,07,20,02,49,18.50
2017,07,20,02,50,18.40
2017,07,20,02,51,18.50
2017,07,20,02,52,18.40
2017,07,20,02,53,18.40
2017,07,20,02,54,18.40
2017,07,20,02,55,18.40
2017,07,20,02,56,18.50
2017,07,20,02,57,18.50
2017,07,20,02,58,18.50
2017,07,20,02,59,18.50
2017,07,20,03,00,18.50
2017,07,20,03,01,18.50
2017,07,20,03,02,18.50
2017,07,20,03,03,18.50
2017,07,20,03,04,18.50
2017,07,20,03,05,18.50
2017,07,20,03,06,18.50
2017,07,20,03,07,18.50
2017,07,20,03,08,18.60
2017,07,20,03,09,18.60
2017,07,20,03,10,18.60
2017,07,20,03,11,18.60
2017,07,20,03,12,18.60
2017,07,20,03,13,18.60
2017,07,20,03,14,18.60
2017,07,20,03,15,18.60
2017,07,20,03,16,18.60
2017,07,20,03,17,18.60
2017,07,20,03,18,18.60
2017,07,20,03,19,18.60
2017,07,20,03,20,18.60
2017,07,20,03,21,18.60
2017,07,20,03,22,18.60
2017,07,20,03,23,18.60
2017,07,20,03,24,18.60
2017,07,20,03,25,18.50
2017,07,20,03,26,18.50
2017,07,20,03,27,18.50
2017,07,20,03,28,18.50
2017,07,20,03,29,18.50
2017,07,20,03,30,18.50
2017,07,20,03,31,18.50
2017,07,20,03,32,18.50
2017,07,20,03,33,18.50
2017,07,20,03,34,18.50
2017,07,20,03,35,18.50
2017,07,20,03,36,18.50
2017,07,20,03,37,18.40
2017,07,20,03,38,18.50
2017,07,20,03,39,18.40
2017,07,20,03,40,18.40
2017,07,20,03,41,18.40
2017,07,20,03,42,18.50
2017,07,20,03,43,18.50
2017,07,20,03,44,18.50
2017,07,20,03,45,18.50
2017,07,20,03,46,18.50
2017,07,20,03,47,18.50
2017,07,20,03,48,18.50
2017,07,20,03,49,18.40
2017,07,20,03,50,18.50
2017,07,20,03,51,18.50
2017,07,20,03,52,18.50
2017,07,20,03,53,18.50
2017,07,20,03,54,18.50
2017,07,20,03,55,18.50
2017,07,20,03,56,18.50
2017,07,20,03,57,18.50
2017,07,20,03,58,18.50
2017,07,20,03,59,18.50
2017,07,20,04,00,18.50
2017,07,20,04,01,18.60
2017,07,20,04,02,18.60
2017,07,20,04,03,18.50
2017,07,20,04,04,18.50
2017,07,20,04,05,18.40
2017,07,20,04,06,18.40
2017,07,20,04,07,18.30
2017,07,20,04,08,18.20
2017,07,20,04,09,18.10
2017,07,20,04,10,17.90
2017,07,20,04,11,17.80
2017,07,20,04,12,17.80
2017,07,20,04,13,17.70
2017,07,20,04,14,17.60
2017,07,20,04,15,17.50
2017,07,20,04,16,17.40
2017,07,20,04,17,17.40
2017,07,20,04,18,17.30
2017,07,20,04,19,17.20
2017,07,20,04,20,17.10
2017,07,20,04,21,17.10
2017,07,20,04,22,17.00
2017,07,20,04,23,16.90
2017,07,20,04,24,16.90
2017,07,20,04,25,16.90
2017,07,20,04,26,16.80
2017,07,20,04,27,16.80
2017,07,20,04,28,16.80
2017,07,20,04,29,16.80
2017,07,20,04,30,16.80
2017,07,20,04,31,16.80
2017,07,20,04,32,16.70
2017,07,20,04,33,16.70
2017,07,20,04,34,16.70
2017,07,20,04,35,16.70
2017,07,20,04,36,16.70
2017,07,20,04,37,16.70
2017,07,20,04,38,16.70
2017,07,20,04,39,16.70
2017,07,20,04,40,16.70
2017,07,20,04,41,16.70
2017,07,20,04,42,16.70
2017,07,20,04,43,16.70
2017,07,20,04,44,16.70
2017,07,20,04,45,16.70
2017,07,20,04,46,16.70
2017,07,20,04,47,16.70
2017,07,20,04,48,16.60
2017,07,20,04,49,16.60
2017,07,20,04,50,16.60
2017,07,20,04,51,16.60
2017,07,20,04,52,16.60
2017,07,20,04,53,16.60
2017,07,20,04,54,16.50
2017,07,20,04,55,16.50
2017,07,20,04,56,16.50
2017,07,20,04,57,16.50
2017,07,20,04,58,16.40
2017,07,20,04,59,16.40
2017,07,20,05,00,16.40
2017,07,20,05,01,16.30
2017,07,20,05,02,16.30
2017,07,20,05,03,16.30
2017,07,20,05,04,16.20
2017,07,20,05,05,16.20
2017,07,20,05,06,16.30
2017,07,20,05,07,16.30
2017,07,20,05,08,16.30
2017,07,20,05,09,16.30
2017,07,20,05,10,16.30
2017,07,20,05,11,16.40
2017,07,20,05,12,16.40
2017,07,20,05,13,16.40
2017,07,20,05,14,16.40
2017,07,20,05,15,16.40
2017,07,20,05,16,16.40
2017,07,20,05,17,16.40
2017,07,20,05,18,16.40
2017,07,20,05,19,16.40
2017,07,20,05,20,16.40
2017,07,20,05,21,16.40
2017,07,20,05,22,16.40
2017,07,20,05,23,16.40
2017,07,20,05,24,16.30
2017,07,20,05,25,16.30
2017,07,20,05,26,16.30
2017,07,20,05,27,16.30
2017,07,20,05,28,16.30
2017,07,20,05,29,16.30
2017,07,20,05,30,16.30
2017,07,20,05,31,16.30
2017,07,20,05,32,16.20
2017,07,20,05,33,16.20
2017,07,20,05,34,16.20
2017,07,20,05,35,16.20
2017,07,20,05,36,16.10
2017,07,20,05,37,16.10
2017,07,20,05,38,16.10
2017,07,20,05,39,16.10
2017,07,20,05,40,16.00
2017,07,20,05,41,16.00
2017,07,20,05,42,16.00
2017,07,20,05,43,16.00
2017,07,20,05,44,15.90
2017,07,20,05,45,15.90
2017,07,20,05,46,15.90
2017,07,20,05,47,15.90
2017,07,20,05,48,15.90
2017,07,20,05,49,15.90
2017,07,20,05,50,15.90
2017,07,20,05,51,15.80
2017,07,20,05,52,15.90
2017,07,20,05,53,15.90
2017,07,20,05,54,15.90
2017,07,20,05,55,15.90
2017,07,20,05,56,15.90
2017,07,20,05,57,15.90
2017,07,20,05,58,15.90
2017,07,20,05,59,15.90
2017,07,20,06,00,15.90
2017,07,20,06,01,15.90
2017,07,20,06,02,15.90
2017,07,20,06,03,15.90
2017,07,20,06,04,15.90
2017,07,20,06,05,15.90
2017,07,20,06,06,15.90
2017,07,20,06,07,15.90
2017,07,20,06,08,15.90
2017,07,20,06,09,15.90
2017,07,20,06,10,15.90
2017,07,20,06,11,15.80
2017,07,20,06,12,15.80
2017,07,20,06,13,15.80
2017,07,20,06,14,15.80
2017,07,20,06,15,15.80
2017,07,20,06,16,15.80
2017,07,20,06,17,15.80
2017,07,20,06,18,15.80
2017,07,20,06,19,15.80
2017,07,20,06,20,15.70
2017,07,20,06,21,15.70
2017,07,20,06,22,15.70
2017,07,20,06,23,15.70
2017,07,20,06,24,15.70
2017,07,20,06,25,15.70
2017,07,20,06,26,15.70
2017,07,20,06,27,15.70
2017,07,20,06,28,15.70
2017,07,20,06,29,15.70
2017,07,20,06,30,15.70
2017,07,20,06,31,15.70
2017,07,20,06,32,15.70
2017,07,20,06,33,15.70
2017,07,20,06,34,15.70
2017,07,20,06,35,15.70
2017,07,20,06,36,15.70
2017,07,20,06,37,15.70
2017,07,20,06,38,15.70
2017,07,20,06,39,15.60
2017,07,20,06,40,15.60
2017,07,20,06,41,15.60
2017,07,20,06,42,15.60
2017,07,20,06,43,15.60
2017,07,20,06,44,15.60
2017,07,20,06,45,15.60
2017,07,20,06,46,15.60
2017,07,20,06,47,15.60
2017,07,20,06,48,15.60
2017,07,20,06,49,15.60
2017,07,20,06,50,15.60
2017,07,20,06,51,15.60
2017,07,20,06,52,15.60
2017,07,20,06,53,15.70
2017,07,20,06,54,15.70
2017,07,20,06,55,15.70
2017,07,20,06,56,15.70
2017,07,20,06,57,15.70
2017,07,20,06,58,15.70
2017,07,20,06,59,15.70
2017,07,20,07,00,15.70
2017,07,20,07,01,15.70
2017,07,20,07,02,15.70
2017,07,20,07,03,15.70
2017,07,20,07,04,15.80
2017,07,20,07,05,15.80
2017,07,20,07,06,15.80
2017,07,20,07,07,15.90
2017,07,20,07,08,15.90
2017,07,20,07,09,15.90
2017,07,20,07,10,16.00
2017,07,20,07,11,16.10
2017,07,20,07,12,16.10
2017,07,20,07,13,16.10
2017,07,20,07,14,16.20
2017,07,20,07,15,16.20
2017,07,20,07,16,16.30
2017,07,20,07,17,16.30
2017,07,20,07,18,16.30
2017,07,20,07,19,16.30
2017,07,20,07,20,16.30
2017,07,20,07,21,16.30
2017,07,20,07,22,16.30
2017,07,20,07,23,16.30
2017,07,20,07,24,16.40
2017,07,20,07,25,16.40
2017,07,20,07,26,16.40
2017,07,20,07,27,16.50
2017,07,20,07,28,16.50
2017,07,20,07,29,16.50
2017,07,20,07,30,16.60
2017,07,20,07,31,16.60
2017,07,20,07,32,16.60
2017,07,20,07,33,16.70
2017,07,20,07,34,16.80
2017,07,20,07,35,16.80
2017,07,20,07,36,16.90
2017,07,20,07,37,17.00
2017,07,20,07,38,17.00
2017,07,20,07,39,17.10
2017,07,20,07,40,17.20
2017,07,20,07,41,17.20
2017,07,20,07,42,17.30
2017,07,20,07,43,17.30
2017,07,20,07,44,17.40
2017,07,20,07,45,17.40
2017,07,20,07,46,17.40
2017,07,20,07,47,17.50
2017,07,20,07,48,17.50
2017,07,20,07,49,17.60
2017,07,20,07,50,17.60
2017,07,20,07,51,17.70
2017,07,20,07,52,17.70
2017,07,20,07,53,17.80
2017,07,20,07,54,17.80
2017,07,20,07,55,17.80
2017,07,20,07,56,17.80
2017,07,20,07,57,17.80
2017,07,20,07,58,17.80
2017,07,20,07,59,17.80
2017,07,20,08,00,17.80
2017,07,20,08,01,17.80
2017,07,20,08,02,17.80
2017,07,20,08,03,17.80
2017,07,20,08,04,17.90
2017,07,20,08,05,18.00
2017,07,20,08,06,18.10
2017,07,20,08,07,18.20
2017,07,20,08,08,18.20
2017,07,20,08,09,18.30
2017,07,20,08,10,18.40
2017,07,20,08,11,18.60
2017,07,20,08,12,18.60
2017,07,20,08,13,18.70
2017,07,20,08,14,18.70
2017,07,20,08,15,18.70
2017,07,20,08,16,18.80
2017,07,20,08,17,18.80
2017,07,20,08,18,18.80
2017,07,20,08,19,18.80
2017,07,20,08,20,18.80
2017,07,20,08,21,18.80
2017,07,20,08,22,18.90
2017,07,20,08,23,18.90
2017,07,20,08,24,19.00
2017,07,20,08,25,19.10
2017,07,20,08,26,19.10
2017,07,20,08,27,19.20
2017,07,20,08,28,19.20
2017,07,20,08,29,19.30
2017,07,20,08,30,19.30
2017,07,20,08,31,19.30
2017,07,20,08,32,19.30
2017,07,20,08,33,19.30
2017,07,20,08,34,19.30
2017,07,20,08,35,19.30
2017,07,20,08,36,19.30
2017,07,20,08,37,19.30
2017,07,20,08,38,19.30
2017,07,20,08,39,19.30
2017,07,20,08,40,19.30
2017,07,20,08,41,19.30
2017,07,20,08,42,19.30
2017,07,20,08,43,19.30
2017,07,20,08,44,19.30
2017,07,20,08,45,19.30
2017,07,20,08,46,19.40
2017,07,20,08,47,19.40
2017,07,20,08,48,19.40
2017,07,20,08,49,19.40
2017,07,20,08,50,19.50
2017,07,20,08,51,19.50
2017,07,20,08,52,19.60
2017,07,20,08,53,19.60
2017,07,20,08,54,19.60
2017,07,20,08,55,19.60
2017,07,20,08,56,19.60
2017,07,20,08,57,19.60
2017,07,20,08,58,19.50
2017,07,20,08,59,19.50
2017,07,20,09,00,19.40
2017,07,20,09,01,19.40
2017,07,20,09,02,19.40
2017,07,20,09,03,19.40
2017,07,20,09,04,19.40
2017,07,20,09,05,19.40
2017,07,20,09,06,19.40
2017,07,20,09,07,19.30
2017,07,20,09,08,19.30
2017,07,20,09,09,19.30
2017,07,20,09,10,19.30
2017,07,20,09,11,19.30
2017,07,20,09,12,19.30
2017,07,20,09,13,19.30
2017,07,20,09,14,19.30
2017,07,20,09,15,19.40
2017,07,20,09,16,19.50
2017,07,20,09,17,19.50
2017,07,20,09,18,19.60
2017,07,20,09,19,19.70
2017,07,20,09,20,19.70
2017,07,20,09,21,19.80
2017,07,20,09,22,19.80
2017,07,20,09,23,19.80
2017,07,20,09,24,19.80
2017,07,20,09,25,19.80
2017,07,20,09,26,19.80
2017,07,20,09,27,19.80
2017,07,20,09,28,19.80
2017,07,20,09,29,19.80
2017,07,20,09,30,19.80
2017,07,20,09,31,19.80
2017,07,20,09,32,19.90
2017,07,20,09,33,20.00
2017,07,20,09,34,20.10
2017,07,20,09,35,20.20
2017,07,20,09,36,20.30
2017,07,20,09,37,20.40
2017,07,20,09,38,20.60
2017,07,20,09,39,20.60
2017,07,20,09,40,20.70
2017,07,20,09,41,20.80
2017,07,20,09,42,20.80
2017,07,20,09,43,20.80
2017,07,20,09,44,20.90
2017,07,20,09,45,20.90
2017,07,20,09,46,20.80
2017,07,20,09,47,20.70
2017,07,20,09,48,20.50
2017,07,20,09,49,20.30
2017,07,20,09,50,20.10
2017,07,20,09,51,19.90
2017,07,20,09,52,19.80
2017,07,20,09,53,19.70
2017,07,20,09,54,19.50
2017,07,20,09,55,19.40
2017,07,20,09,56,19.30
2017,07,20,09,57,19.30
2017,07,20,09,58,19.20
2017,07,20,09,59,19.20
2017,07,20,10,00,19.20
2017,07,20,10,01,19.10
2017,07,20,10,02,19.10
2017,07,20,10,03,19.00
2017,07,20,10,04,18.90
2017,07,20,10,05,18.70
2017,07,20,10,06,18.60
2017,07,20,10,07,18.30
2017,07,20,10,08,18.10
2017,07,20,10,09,18.00
2017,07,20,10,10,17.90
2017,07,20,10,11,17.80
2017,07,20,10,12,17.70
2017,07,20,10,13,17.60
2017,07,20,10,14,17.60
2017,07,20,10,15,17.50
2017,07,20,10,16,17.40
2017,07,20,10,17,17.40
2017,07,20,10,18,17.40
2017,07,20,10,19,17.40
2017,07,20,10,20,17.40
2017,07,20,10,21,17.40
2017,07,20,10,22,17.40
2017,07,20,10,23,17.30
2017,07,20,10,24,17.30
2017,07,20,10,25,17.30
2017,07,20,10,26,17.20
2017,07,20,10,27,17.20
2017,07,20,10,28,17.20
2017,07,20,10,29,17.20
2017,07,20,10,30,17.20
2017,07,20,10,31,17.20
2017,07,20,10,32,17.30
2017,07,20,10,33,17.30
2017,07,20,10,34,17.40
2017,07,20,10,35,17.40
2017,07,20,10,36,17.50
2017,07,20,10,37,17.60
2017,07,20,10,38,17.60
2017,07,20,10,39,17.70
2017,07,20,10,40,17.80
2017,07,20,10,41,17.90
2017,07,20,10,42,18.00
2017,07,20,10,43,18.10
2017,07,20,10,44,18.20
2017,07,20,10,45,18.30
2017,07,20,10,46,18.30
2017,07,20,10,47,18.40
2017,07,20,10,48,18.40
2017,07,20,10,49,18.30
2017,07,20,10,50,18.20
2017,07,20,10,51,18.10
2017,07,20,10,52,18.00
2017,07,20,10,53,17.80
2017,07,20,10,54,17.70
2017,07,20,10,55,17.50
2017,07,20,10,56,17.30
2017,07,20,10,57,17.20
2017,07,20,10,58,17.10
2017,07,20,10,59,17.10
2017,07,20,11,00,17.00
2017,07,20,11,01,16.90
2017,07,20,11,02,16.90
2017,07,20,11,03,16.90
2017,07,20,11,04,16.90
2017,07,20,11,05,16.90
2017,07,20,11,06,16.90
2017,07,20,11,07,16.90
2017,07,20,11,08,16.90
2017,07,20,11,09,17.00
2017,07,20,11,10,17.00
2017,07,20,11,11,17.00
2017,07,20,11,12,17.00
2017,07,20,11,13,17.00
2017,07,20,11,14,17.00
2017,07,20,11,15,17.00
2017,07,20,11,16,17.10
2017,07,20,11,17,17.10
2017,07,20,11,18,17.10
2017,07,20,11,19,17.10
2017,07,20,11,20,17.10
2017,07,20,11,21,17.10
2017,07,20,11,22,17.00
2017,07,20,11,23,17.00
2017,07,20,11,24,17.00
2017,07,20,11,25,16.90
2017,07,20,11,26,16.90
2017,07,20,11,27,16.80
2017,07,20,11,28,16.80
2017,07,20,11,29,16.80
2017,07,20,11,30,16.70
2017,07,20,11,31,16.70
2017,07,20,11,32,16.60
2017,07,20,11,33,16.60
2017,07,20,11,34,16.50
2017,07,20,11,35,16.50
2017,07,20,11,36,16.50
2017,07,20,11,37,16.60
2017,07,20,11,38,16.60
2017,07,20,11,39,16.70
2017,07,20,11,40,16.80
2017,07,20,11,41,16.90
2017,07,20,11,42,17.00
2017,07,20,11,43,17.20
2017,07,20,11,44,17.30
2017,07,20,11,45,17.40
2017,07,20,11,46,17.50
2017,07,20,11,47,17.60
2017,07,20,11,48,17.60
2017,07,20,11,49,17.70
2017,07,20,11,50,17.70
2017,07,20,11,51,17.70
2017,07,20,11,52,17.70
2017,07,20,11,53,17.80
2017,07,20,11,54,17.80
2017,07,20,11,55,17.90
2017,07,20,11,56,17.90
2017,07,20,11,57,17.90
2017,07,20,11,58,17.90
2017,07,20,11,59,17.90
2017,07,20,12,00,17.90
2017,07,20,12,01,17.80
2017,07,20,12,02,17.80
2017,07,20,12,03,17.80
2017,07,20,12,04,17.80
2017,07,20,12,05,17.70
2017,07,20,12,06,17.70
2017,07,20,12,07,17.70
2017,07,20,12,08,17.70
2017,07,20,12,09,17.80
2017,07,20,12,10,17.80
2017,07,20,12,11,17.80
2017,07,20,12,12,17.90
2017,07,20,12,13,18.00
2017,07,20,12,14,18.00
2017,07,20,12,15,18.10
2017,07,20,12,16,18.20
2017,07,20,12,17,18.30
2017,07,20,12,18,18.30
2017,07,20,12,19,18.30
2017,07,20,12,20,18.40
2017,07,20,12,21,18.40
2017,07,20,12,22,18.50
2017,07,20,12,23,18.60
2017,07,20,12,24,18.70
2017,07,20,12,25,18.70
2017,07,20,12,26,18.80
2017,07,20,12,27,18.80
2017,07,20,12,28,19.00
2017,07,20,12,29,19.10
2017,07,20,12,30,19.10
2017,07,20,12,31,19.00
2017,07,20,12,32,19.00
2017,07,20,12,33,19.00
2017,07,20,12,34,19.00
2017,07,20,12,35,19.00
2017,07,20,12,36,19.10
2017,07,20,12,37,19.10
2017,07,20,12,38,19.20
2017,07,20,12,39,19.40
2017,07,20,12,40,19.50
2017,07,20,12,41,19.60
2017,07,20,12,42,19.70
2017,07,20,12,43,19.70
2017,07,20,12,44,19.70
2017,07,20,12,45,19.70
2017,07,20,12,46,19.60
2017,07,20,12,47,19.70
2017,07,20,12,48,19.70
2017,07,20,12,49,19.70
2017,07,20,12,50,19.80
2017,07,20,12,51,19.80
2017,07,20,12,52,19.90
2017,07,20,12,53,19.90
2017,07,20,12,54,20.00
2017,07,20,12,55,20.10
2017,07,20,12,56,20.20
2017,07,20,12,57,20.30
2017,07,20,12,58,20.50
2017,07,20,12,59,20.60
2017,07,20,13,00,20.80
2017,07,20,13,01,20.90
2017,07,20,13,02,21.10
2017,07,20,13,03,21.20
2017,07,20,13,04,21.40
2017,07,20,13,05,21.40
2017,07,20,13,06,21.50
2017,07,20,13,07,21.50
2017,07,20,13,08,21.60
2017,07,20,13,09,21.80
2017,07,20,13,10,21.80
2017,07,20,13,11,21.80
2017,07,20,13,12,21.90
2017,07,20,13,13,21.90
2017,07,20,13,14,22.00
2017,07,20,13,15,22.00
2017,07,20,13,16,22.10
2017,07,20,13,17,22.10
2017,07,20,13,18,22.10
2017,07,20,13,19,22.20
2017,07,20,13,20,22.20
2017,07,20,13,21,22.20
2017,07,20,13,22,22.10
2017,07,20,13,23,22.10
2017,07,20,13,24,22.10
2017,07,20,13,25,22.10
2017,07,20,13,26,22.10
2017,07,20,13,27,22.10
2017,07,20,13,28,22.10
2017,07,20,13,29,22.10
2017,07,20,13,30,22.10
2017,07,20,13,31,22.10
2017,07,20,13,32,22.20
2017,07,20,13,33,22.20
2017,07,20,13,34,22.40
2017,07,20,13,35,22.50
2017,07,20,13,36,22.60
2017,07,20,13,37,22.70
2017,07,20,13,38,22.70
2017,07,20,13,39,22.80
2017,07,20,13,40,22.80
2017,07,20,13,41,22.80
2017,07,20,13,42,22.70
2017,07,20,13,43,22.60
2017,07,20,13,44,22.60
2017,07,20,13,45,22.50
2017,07,20,13,46,22.50
2017,07,20,13,47,22.40
2017,07,20,13,48,22.20
2017,07,20,13,49,22.10
2017,07,20,13,50,22.10
2017,07,20,13,51,22.00
2017,07,20,13,52,21.90
2017,07,20,13,53,21.90
2017,07,20,13,54,21.80
2017,07,20,13,55,21.80
2017,07,20,13,56,21.70
2017,07,20,13,57,21.70
2017,07,20,13,58,21.60
2017,07,20,13,59,21.60
2017,07,20,14,00,21.60
2017,07,20,14,01,21.50
2017,07,20,14,02,21.40
2017,07,20,14,03,21.40
2017,07,20,14,04,21.40
2017,07,20,14,05,21.40
2017,07,20,14,06,21.40
2017,07,20,14,07,21.40
2017,07,20,14,08,21.50
2017,07,20,14,09,21.60
2017,07,20,14,10,21.70
2017,07,20,14,11,21.70
2017,07,20,14,12,21.70
2017,07,20,14,13,21.80
2017,07,20,14,14,21.80
2017,07,20,14,15,21.80
2017,07,20,14,16,21.80
2017,07,20,14,17,21.70
2017,07,20,14,18,21.70
2017,07,20,14,19,21.70
2017,07,20,14,20,21.70
2017,07,20,14,21,21.60
2017,07,20,14,22,21.60
2017,07,20,14,23,21.50
2017,07,20,14,24,21.50
2017,07,20,14,25,21.50
2017,07,20,14,26,21.40
2017,07,20,14,27,21.40
2017,07,20,14,28,21.40
2017,07,20,14,29,21.30
2017,07,20,14,30,21.30
2017,07,20,14,31,21.20
2017,07,20,14,32,21.20
2017,07,20,14,33,21.20
2017,07,20,14,34,21.20
2017,07,20,14,35,21.20
2017,07,20,14,36,21.20
2017,07,20,14,37,21.20
2017,07,20,14,38,21.20
2017,07,20,14,39,21.20
2017,07,20,14,40,21.20
2017,07,20,14,41,21.20
2017,07,20,14,42,21.20
2017,07,20,14,43,21.10
2017,07,20,14,44,21.10
2017,07,20,14,45,21.10
2017,07,20,14,46,21.10
2017,07,20,14,47,21.10
2017,07,20,14,48,21.10
2017,07,20,14,49,21.10
2017,07,20,14,50,21.10
2017,07,20,14,51,21.10
2017,07,20,14,52,21.10
2017,07,20,14,53,21.10
2017,07,20,14,54,21.10
2017,07,20,14,55,21.10
2017,07,20,14,56,21.20
2017,07,20,14,57,21.20
2017,07,20,14,58,21.20
2017,07,20,14,59,21.20
2017,07,20,15,00,21.20
2017,07,20,15,01,21.20
2017,07,20,15,02,21.20
2017,07,20,15,03,21.20
2017,07,20,15,04,21.20
2017,07,20,15,05,21.20
2017,07,20,15,06,21.30
2017,07,20,15,07,21.30
2017,07,20,15,08,21.30
2017,07,20,15,09,21.40
2017,07,20,15,10,21.50
2017,07,20,15,11,21.60
2017,07,20,15,12,21.60
2017,07,20,15,13,21.70
2017,07,20,15,14,21.70
2017,07,20,15,15,21.80
2017,07,20,15,16,21.80
2017,07,20,15,17,21.80
2017,07,20,15,18,21.80
2017,07,20,15,19,21.80
2017,07,20,15,20,21.80
2017,07,20,15,21,21.80
2017,07,20,15,22,21.70
2017,07,20,15,23,21.70
2017,07,20,15,24,21.70
2017,07,20,15,25,21.70
2017,07,20,15,26,21.80
2017,07,20,15,27,21.80
2017,07,20,15,28,21.80
2017,07,20,15,29,21.80
2017,07,20,15,30,21.80
2017,07,20,15,31,21.80
2017,07,20,15,32,21.80
2017,07,20,15,33,21.70
2017,07,20,15,34,21.70
2017,07,20,15,35,21.70
2017,07,20,15,36,21.70
2017,07,20,15,37,21.70
2017,07,20,15,38,21.70
2017,07,20,15,39,21.70
2017,07,20,15,40,21.70
2017,07,20,15,41,21.70
2017,07,20,15,42,21.80
2017,07,20,15,43,21.80
2017,07,20,15,44,21.80
2017,07,20,15,45,21.80
2017,07,20,15,46,21.80
2017,07,20,15,47,21.70
2017,07,20,15,48,21.70
2017,07,20,15,49,21.70
2017,07,20,15,50,21.70
2017,07,20,15,51,21.70
2017,07,20,15,52,21.70
2017,07,20,15,53,21.70
2017,07,20,15,54,21.70
2017,07,20,15,55,21.70
2017,07,20,15,56,21.70
2017,07,20,15,57,21.70
2017,07,20,15,58,21.70
2017,07,20,15,59,21.70
2017,07,20,16,00,21.70
2017,07,20,16,01,21.70
2017,07,20,16,02,21.70
2017,07,20,16,03,21.80
2017,07,20,16,04,21.80
2017,07,20,16,05,21.80
2017,07,20,16,06,21.80
2017,07,20,16,07,21.80
2017,07,20,16,08,21.90
2017,07,20,16,09,21.90
2017,07,20,16,10,21.90
2017,07,20,16,11,21.90
2017,07,20,16,12,21.90
2017,07,20,16,13,21.90
2017,07,20,16,14,21.90
2017,07,20,16,15,21.90
2017,07,20,16,16,22.00
2017,07,20,16,17,22.00
2017,07,20,16,18,22.10
2017,07,20,16,19,22.10
2017,07,20,16,20,22.00
2017,07,20,16,21,21.90
2017,07,20,16,22,21.90
2017,07,20,16,23,21.80
2017,07,20,16,24,21.80
2017,07,20,16,25,21.80
2017,07,20,16,26,21.70
2017,07,20,16,27,21.70
2017,07,20,16,28,21.70
2017,07,20,16,29,21.70
2017,07,20,16,30,21.70
2017,07,20,16,31,21.70
2017,07,20,16,32,21.70
2017,07,20,16,33,21.80
2017,07,20,16,34,21.80
2017,07,20,16,35,21.80
2017,07,20,16,36,21.90
2017,07,20,16,37,21.90
2017,07,20,16,38,21.90
2017,07,20,16,39,22.00
2017,07,20,16,40,22.00
2017,07,20,16,41,22.00
2017,07,20,16,42,22.00
2017,07,20,16,43,22.10
2017,07,20,16,44,22.10
2017,07,20,16,45,22.20
2017,07,20,16,46,22.30
2017,07,20,16,47,22.30
2017,07,20,16,48,22.30
2017,07,20,16,49,22.30
2017,07,20,16,50,22.30
2017,07,20,16,51,22.30
2017,07,20,16,52,22.20
2017,07,20,16,53,22.20
2017,07,20,16,54,22.20
2017,07,20,16,55,22.20
2017,07,20,16,56,22.20
2017,07,20,16,57,22.20
2017,07,20,16,58,22.10
2017,07,20,16,59,22.10
2017,07,20,17,00,22.10
2017,07,20,17,01,22.00
2017,07,20,17,02,22.00
2017,07,20,17,03,22.00
2017,07,20,17,04,22.00
2017,07,20,17,05,22.00
2017,07,20,17,06,21.90
2017,07,20,17,07,21.90
2017,07,20,17,08,21.80
2017,07,20,17,09,21.80
2017,07,20,17,10,21.80
2017,07,20,17,11,21.80
2017,07,20,17,12,21.80
2017,07,20,17,13,21.80
2017,07,20,17,14,21.90
2017,07,20,17,15,21.90
2017,07,20,17,16,21.90
2017,07,20,17,17,21.90
2017,07,20,17,18,21.90
2017,07,20,17,19,21.90